Theta_e
319 320 320 320 325 326 327 326 323 329 335 333 335 337 339 340 344 347 346 346 347 347 346 338 337 336 335 334 333 334 335 335 335 333 330 327 325 325 326 327 328 328 329 329 330 330 331 331 330
319 321 320 323 326 325 326 325 328 332 330 329 330 331 333 338 344 347 346 343 343 344 341 337 336 336 335 334 334 335 336 336 336 335 332 330 328 327 327 328 328 328 328 329 329 329 329 329 328
320 321 324 327 326 326 326 327 331 328 326 327 329 327 331 334 340 343 342 342 342 339 338 337 336 335 334 333 333 334 335 336 336 336 335 333 331 329 328 328 328 329 328 329 328 328 327 328 327
321 323 323 327 326 325 325 326 325 327 326 328 327 331 333 335 339 340 339 339 339 339 338 337 336 335 334 334 333 333 334 335 335 336 336 335 334 332 330 330 329 330 328 329 328 327 327 327 327
321 324 326 326 326 324 324 323 325 328 326 326 326 326 332 335 338 340 337 339 339 338 338 337 336 335 335 334 334 334 334 334 334 334 334 335 335 334 333 331 330 330 330 329 329 327 326 327 326
324 323 326 325 325 324 323 323 324 326 324 323 325 328 328 334 338 341 343 342 339 338 337 337 337 337 337 336 335 334 334 335 336 335 334 334 334 335 335 333 332 331 330 330 330 328 326 327 326
324 325 325 325 325 324 323 322 324 324 323 321 321 326 329 332 337 338 342 343 342 341 340 341 341 341 339 338 339 338 336 334 333 333 333 333 332 333 334 334 333 332 331 330 330 330 328 325 326
322 324 325 325 325 324 321 320 320 323 321 320 320 327 332 329 334 332 335 338 340 340 340 339 338 337 338 338 337 337 337 337 336 334 334 333 333 332 332 334 334 334 333 331 330 330 330 328 325
320 325 325 325 325 323 320 321 319 320 321 319 320 322 322 321 319 319 320 329 332 333 334 335 335 334 333 333 333 334 335 336 336 336 336 335 334 334 332 332 333 333 333 332 332 331 330 330 329
323 325 325 324 323 322 320 320 320 322 322 320 319 318 317 317 317 316 315 319 322 324 325 327 327 327 327 324 323 325 328 329 332 334 334 335 335 334 334 335 333 332 331 332 332 332 333 331 333
321 325 323 321 320 320 320 319 317 320 322 322 320 317 315 314 314 313 313 314 313 312 311 310 309 309 309 308 308 308 309 312 314 319 325 330 332 333 333 333 333 334 334 334 333 334 334 335 337
321 319 320 319 317 318 320 318 318 319 319 320 317 315 314 312 311 310 309 308 306 306 306 305 305 305 305 305 305 305 305 305 305 305 305 306 308 314 321 326 327 328 330 332 334 334 333 333 332
319 319 317 316 316 317 317 318 319 317 316 315 313 312 311 310 308 307 306 305 305 304 304 304 304 304 304 304 304 304 304 304 304 304 304 304 304 304 305 305 306 310 316 322 326 331 332 333 333
316 316 317 317 318 316 319 318 318 316 314 313 312 311 310 308 307 306 305 304 304 303 303 303 303 303 303 303 303 303 303 303 302 302 303 303 302 302 302 302 303 304 304 305 309 316 323 331 333
314 317 318 317 318 318 316 318 318 315 314 312 311 309 308 307 306 305 304 303 302 302 302 302 302 302 302 302 302 302 302 302 302 302 302 301 301 301 301 301 301 301 301 302 304 306 310 320 329
317 317 323 319 317 316 316 321 317 315 314 313 311 309 307 306 304 303 302 302 301 301 302 302 302 302 302 302 302 301 301 301 301 301 301 301 301 301 301 301 301 301 301 301 301 303 304 306 311
320 325 322 319 315 316 317 321 316 314 314 314 312 310 308 305 304 303 302 301 301 301 301 302 302 302 302 301 301 301 301 301 301 301 301 300 300 301 301 301 301 301 301 301 302 302 303 303 304
326 323 322 322 315 314 316 317 317 314 314 314 312 310 308 306 304 303 301 301 301 301 301 301 301 301 301 301 301 301 301 301 300 300 300 300 300 300 300 300 300 300 301 301 301 301 301 302 305
319 321 321 320 313 313 316 317 317 315 314 314 312 311 309 307 304 303 301 300 300 300 300 300 300 301 300 300 300 300 299 299 299 299 299 299 299 299 299 300 300 300 301 301 301 301 301 302 303
317 319 320 316 312 312 314 316 317 315 314 313 313 311 309 307 304 303 302 301 300 300 300 300 300 299 299 299 299 298 298 298 298 297 297 297 297 298 299 299 300 300 300 301 301 301 300 300 302
316 317 319 317 312 311 312 314 316 315 314 313 312 311 309 307 306 304 303 301 300 299 299 298 298 298 298 298 297 297 297 297 297 296 296 296 296 296 296 297 298 299 299 300 300 299 299 298 298
317 315 314 315 314 318 312 319 317 315 315 313 312 310 309 307 306 304 303 302 300 299 298 297 297 297 297 297 296 296 296 296 295 295 295 295 295 295 295 295 296 297 298 299 299 298 297 297 298
316 311 313 313 314 314 314 315 319 315 315 314 312 310 309 307 306 305 304 302 299 298 297 296 296 297 297 297 296 295 295 294 294 295 295 295 295 294 294 294 294 294 295 296 296 295 295 296 297
310 310 310 310 312 315 316 315 318 316 315 315 312 311 309 308 306 305 304 301 300 298 297 297 296 296 296 296 295 294 293 293 294 294 294 294 294 294 294 293 293 293 293 294 294 294 295 295 295
311 312 316 315 314 317 311 314 316 314 312 313 313 311 309 308 306 305 304 302 300 298 297 296 296 295 295 294 293 293 292 292 292 293 293 293 293 292 292 292 291 292 292 292 292 293 292 292 292
312 314 319 320 321 319 309 312 315 310 310 310 311 310 309 307 306 305 304 302 300 298 297 296 295 295 294 294 293 292 292 291 291 291 292 292 291 291 291 290 290 290 290 290 291 291 291 290 290
311 312 315 315 310 313 316 314 310 311 311 310 310 310 309 307 306 306 304 301 299 298 296 295 295 295 294 293 292 291 291 290 290 290 291 291 291 290 289 289 289 289 289 289 288 289 290 288 288
311 312 311 312 316 316 317 317 317 313 312 312 311 310 309 307 306 305 304 301 299 297 296 295 295 294 293 292 291 290 290 289 289 290 290 290 290 289 288 288 289 289 288 288 288 288 288 287 287
309 310 310 313 314 316 317 318 314 313 313 313 311 309 308 307 306 305 303 300 298 297 295 295 294 293 292 291 290 290 289 289 289 289 289 289 288 288 287 287 289 288 287 288 287 287 286 286 286
309 311 312 315 313 311 313 316 312 312 313 312 311 309 308 307 306 305 302 299 297 296 295 294 293 292 291 290 290 289 288 288 288 288 288 287 287 287 287 286 288 287 286 287 285 285 284 284 285
Wind_Speed
8 11 7 2 6 5 7 6 1 9 11 11 11 12 20 18 12 7 6 13 14 12 9 6 7 5 4 2 1 1 0 1 0 1 2 2 3 3 3 2 2 1 2 2 3 4 4 4 5
8 9 3 4 6 8 7 3 7 11 19 18 19 17 15 12 15 9 3 11 11 10 7 8 7 6 5 4 3 3 2 2 1 1 0 0 1 2 3 3 3 2 2 3 4 5 6 6 6
8 6 5 3 2 6 8 8 14 15 8 7 8 11 7 6 9 5 7 3 7 7 7 6 4 3 2 2 2 2 3 3 3 2 2 2 1 1 2 3 4 4 4 5 5 7 8 8 7
5 2 3 4 8 8 8 8 8 11 10 6 13 11 10 8 3 5 5 3 3 4 5 5 4 3 1 2 3 3 4 4 4 4 4 4 4 3 3 4 4 5 6 7 7 8 9 9 8
3 3 2 4 8 8 6 3 6 6 8 11 6 10 8 5 7 9 7 6 5 6 5 4 2 1 1 2 3 4 4 5 6 6 6 6 6 6 6 6 6 7 8 8 8 8 10 10 9
4 3 5 7 9 8 9 7 9 9 13 10 13 11 6 2 6 10 9 7 7 7 6 3 1 1 3 4 5 5 5 5 6 7 7 8 9 8 9 9 9 9 10 10 10 10 11 11 11
4 5 2 7 10 10 8 8 8 11 13 8 4 6 7 5 9 10 9 8 6 5 4 4 3 4 7 8 5 6 7 8 8 8 8 9 10 10 10 10 12 13 13 13 13 13 12 12 12
2 3 7 5 10 9 5 7 6 5 8 6 4 5 8 7 11 11 10 9 6 5 4 3 4 4 5 7 8 8 7 8 10 11 10 9 11 11 11 11 12 12 15 16 16 16 16 15 15
2 5 7 8 10 9 9 8 6 5 12 9 7 8 12 11 10 10 11 10 10 9 8 7 6 6 6 7 7 7 7 7 7 9 10 11 11 12 13 14 13 15 15 15 17 18 19 20 19
5 6 4 4 4 9 8 6 10 8 13 12 15 14 13 12 12 11 11 12 12 12 11 10 8 6 6 6 7 7 7 7 7 8 9 9 10 13 14 15 17 17 18 18 19 19 20 21 19
2 4 4 8 6 5 8 9 4 7 6 9 15 16 14 13 12 12 13 13 13 13 12 11 9 8 7 7 8 9 9 10 10 11 11 12 13 15 18 20 19 18 19 17 17 19 20 17 18
6 3 3 6 2 3 7 10 7 4 7 13 17 16 15 13 13 12 13 13 12 12 12 12 11 11 11 12 12 13 13 13 13 13 13 13 14 16 17 18 19 20 22 22 21 22 23 24 23
6 5 5 4 2 5 6 5 7 11 13 15 16 15 14 12 12 12 13 12 12 12 12 11 11 10 10 11 12 12 12 13 14 14 15 15 15 16 17 18 19 20 22 22 24 25 26 23 26
2 4 7 7 8 8 8 9 5 9 14 15 15 14 12 12 12 12 11 11 10 11 11 10 10 10 10 10 11 12 13 14 14 14 15 16 17 18 18 19 20 20 21 22 23 24 26 27 27
3 8 9 13 12 7 10 9 3 19 17 16 15 13 12 11 11 11 10 10 10 10 10 9 9 10 10 11 12 12 12 12 14 16 18 18 17 18 19 20 20 21 22 22 21 21 23 27 29
7 5 11 7 12 9 14 12 14 19 20 18 15 14 13 11 10 10 10 10 10 9 8 9 9 10 10 11 12 13 14 15 16 17 17 18 20 20 19 19 21 22 22 22 23 22 24 24 26
10 11 9 8 8 5 16 5 15 18 19 18 17 15 13 11 10 9 9 9 8 8 8 8 8 9 10 11 12 14 15 16 17 19 20 21 21 21 22 22 23 23 22 22 22 22 23 24 26
11 12 9 11 7 9 10 4 13 17 18 18 17 15 13 12 10 9 8 8 8 7 8 8 10 11 13 13 13 13 14 15 16 17 19 21 21 21 21 22 24 24 22 21 24 26 28 26 24
9 10 11 4 4 6 9 10 14 19 19 19 18 16 14 13 11 9 8 7 6 6 7 8 9 9 10 11 14 14 16 17 17 18 19 19 19 20 20 19 19 21 23 26 27 27 27 27 27
12 12 11 4 3 6 6 9 14 19 20 22 21 19 18 16 14 10 8 6 5 6 7 9 12 14 15 16 17 17 17 16 17 18 19 20 20 20 19 19 20 22 24 26 28 30 31 24 19
14 13 9 10 4 3 6 11 16 17 18 22 22 20 19 18 16 12 9 6 4 5 8 10 11 13 15 16 16 17 16 15 16 19 18 21 21 22 21 21 21 22 23 25 27 26 25 29 24
12 10 12 11 8 11 7 5 16 17 19 21 24 24 23 20 17 14 11 7 4 3 6 8 10 12 14 16 17 18 17 17 19 18 19 19 19 19 19 20 22 22 24 24 26 25 25 24 23
3 2 8 8 10 9 12 8 4 16 16 22 26 27 25 23 20 18 14 9 6 3 4 6 8 10 12 14 15 16 17 17 16 16 19 18 18 18 19 20 22 23 24 25 26 25 23 21 21
9 8 5 3 5 11 18 13 12 11 18 17 25 27 27 25 22 18 14 10 6 1 2 4 6 8 11 13 16 17 18 18 16 16 16 16 16 17 18 21 22 22 23 25 26 24 21 24 26
15 11 5 7 7 10 2 10 15 6 5 8 22 29 29 26 24 21 17 12 8 4 1 2 5 8 12 14 16 18 19 18 17 17 17 19 17 18 18 22 22 23 24 25 23 23 25 21 21
22 19 8 11 13 11 5 9 3 3 7 8 14 23 26 27 25 22 18 14 9 5 2 1 4 6 11 14 16 17 19 17 17 16 17 16 18 19 20 21 24 24 24 23 22 24 23 23 24
9 15 17 11 3 5 10 11 6 7 7 12 15 23 27 27 25 22 18 14 10 6 3 2 4 8 11 14 16 17 18 18 17 16 15 16 17 18 19 20 21 22 23 21 22 22 25 24 24
12 8 7 10 9 16 12 12 11 12 14 13 16 24 26 26 25 22 19 15 11 7 3 4 7 8 10 13 15 17 18 17 16 14 15 17 18 19 20 20 21 22 22 20 21 22 22 24 25
10 13 8 9 15 13 15 12 5 4 14 17 19 23 27 28 26 23 20 15 11 7 4 5 6 7 11 14 17 19 18 17 15 14 15 17 18 19 19 18 21 20 21 21 21 22 23 26 26
14 18 20 8 12 6 6 17 6 6 10 15 17 23 26 26 25 23 20 16 11 7 4 4 6 8 13 17 19 18 16 16 14 15 16 17 18 18 18 18 19 20 20 22 21 23 26 26 28
Wind_Direction
338 339 333 281 226 230 133 98 87 127 78 89 86 95 80 54 17 72 76 46 59 88 100 151 153 158 157 145 137 140 223 193 153 100 66 51 43 25 6 1 3 7 3 343 334 319 318 323 324
339 343 315 265 250 167 113 125 112 103 111 103 94 105 83 80 60 83 116 32 59 80 138 135 149 157 159 166 179 180 192 221 230 244 289 1 20 1 341 336 326 323 324 317 312 305 307 308 313
346 357 282 297 233 98 121 108 117 116 135 150 112 80 62 35 33 87 94 82 112 123 135 138 136 154 171 192 226 226 211 221 238 255 272 288 298 306 317 309 305 305 308 303 300 301 302 304 308
338 266 213 265 112 87 95 129 116 125 106 112 117 82 78 41 68 83 56 48 84 123 133 133 144 137 144 274 263 255 257 257 255 259 274 285 286 288 284 280 280 282 290 291 291 296 297 298 300
318 246 201 129 104 102 103 115 169 154 105 112 110 104 88 32 84 90 85 104 111 125 126 126 127 98 344 328 308 288 274 267 268 272 279 280 283 286 285 283 279 275 277 283 287 291 294 293 293
224 269 207 164 118 114 102 97 144 127 118 103 101 107 84 64 106 105 101 110 113 115 116 122 100 333 309 295 292 295 289 285 285 282 279 280 284 278 284 284 283 281 280 279 284 286 287 286 286
287 252 170 134 134 135 110 115 120 132 133 78 119 94 111 109 121 106 106 109 114 121 125 127 101 57 32 19 351 312 308 302 296 293 293 291 289 287 284 290 294 292 286 284 282 280 281 284 281
259 260 181 173 174 129 120 109 102 121 85 81 53 132 130 137 117 101 102 108 114 114 106 85 69 39 26 26 28 27 0 326 310 303 302 305 299 293 281 279 278 279 291 293 289 285 281 279 279
270 228 192 172 186 141 143 139 88 89 101 66 59 104 123 126 116 105 90 100 101 97 90 85 77 67 58 47 27 9 356 347 342 328 315 306 301 299 295 285 280 273 274 276 285 288 285 282 278
258 254 167 114 134 146 133 145 127 140 118 96 99 107 115 117 118 107 95 95 98 95 94 91 85 73 56 40 24 13 10 358 340 326 319 318 315 311 307 299 291 288 282 279 277 275 277 277 276
172 294 145 153 140 183 149 132 118 169 121 143 149 136 129 122 110 102 97 94 93 91 90 87 81 70 55 41 26 17 10 0 355 351 346 333 320 311 305 308 303 295 287 286 285 281 276 266 265
219 168 177 146 143 187 200 137 108 62 101 130 138 138 132 124 113 102 102 98 91 97 92 83 77 74 69 64 54 47 37 29 21 11 360 347 332 322 315 311 312 307 299 290 277 277 279 276 267
234 183 202 186 216 193 150 160 127 115 127 132 132 129 123 111 100 96 99 99 102 97 94 91 84 76 64 53 45 37 25 15 7 359 352 346 340 335 330 322 314 310 307 305 297 286 275 274 276
128 221 224 227 217 182 176 145 161 144 143 136 134 129 122 117 111 104 97 98 102 100 94 80 68 59 50 41 31 20 9 1 356 348 342 336 331 328 325 321 317 314 312 308 304 298 290 284 266
211 253 215 221 215 195 164 179 176 158 156 148 143 136 127 122 117 111 107 106 104 95 84 75 59 47 38 30 21 11 1 351 342 336 331 329 325 321 321 320 316 313 313 312 311 305 295 282 280
237 234 237 148 202 180 199 229 154 166 164 162 157 148 138 124 114 106 102 101 97 93 80 62 46 30 18 11 4 355 348 345 339 333 329 324 321 324 325 321 318 317 317 316 314 313 306 300 288
213 254 219 168 211 174 202 203 160 175 179 172 171 162 152 140 129 118 113 108 100 87 72 55 39 26 17 8 359 352 348 343 338 334 332 330 327 325 327 325 323 324 323 323 321 316 315 312 304
233 229 222 247 156 217 209 199 163 182 189 184 179 171 166 158 147 133 122 113 94 77 57 42 29 18 11 3 1 358 353 348 346 342 337 334 332 330 327 323 323 325 327 323 321 319 316 316 311
271 250 249 224 131 235 222 205 180 181 195 192 190 185 179 170 160 144 133 117 90 68 49 37 28 20 12 7 6 4 3 358 354 350 345 341 337 332 329 326 325 324 326 325 325 322 319 315 317
230 237 235 223 187 255 203 201 182 189 199 197 196 193 187 177 171 160 143 122 94 60 41 32 23 17 14 10 7 3 357 354 352 348 345 342 340 337 334 330 329 329 329 328 327 325 322 318 316
225 232 229 259 170 226 209 218 197 200 206 206 207 203 195 190 181 171 159 141 100 55 41 32 22 15 11 7 2 360 357 353 345 345 341 338 337 336 334 331 329 329 329 328 328 325 320 315 315
228 228 242 245 240 247 216 275 191 187 202 207 204 202 198 190 184 179 172 158 133 69 44 31 23 15 6 1 357 354 353 346 339 338 333 331 330 329 328 327 327 324 325 327 327 324 320 318 314
233 204 211 228 243 285 221 259 195 184 208 210 207 202 200 193 187 183 177 167 151 93 48 30 19 6 356 350 348 346 344 340 335 333 332 331 332 333 332 331 329 325 324 322 326 326 322 316 306
142 142 142 199 257 248 242 228 261 183 217 209 205 202 200 194 188 184 180 171 165 123 44 19 8 352 349 347 346 346 346 343 336 331 332 329 330 327 329 327 326 322 320 319 321 322 311 304 300
196 183 203 223 216 249 77 220 254 154 172 210 197 197 196 192 187 185 184 181 177 177 136 6 2 352 347 348 347 346 344 342 337 334 331 331 326 324 328 328 324 323 321 322 318 311 314 310 303
205 204 212 239 247 253 161 231 242 127 183 183 190 194 191 190 190 189 188 185 183 179 176 357 352 350 343 341 343 344 341 338 336 332 331 328 326 331 327 320 325 323 321 321 317 311 311 313 310
184 227 240 268 249 266 243 231 197 174 182 189 184 183 189 191 191 190 188 185 182 177 202 296 336 334 335 340 340 340 339 337 334 332 331 326 328 325 320 327 325 323 314 317 316 314 311 312 315
233 185 195 217 239 239 253 254 260 194 204 185 183 188 189 191 191 191 189 185 181 180 202 300 316 333 336 339 338 338 337 336 333 332 332 332 328 328 327 330 325 321 317 323 322 316 314 315 315
199 214 229 255 232 251 256 250 69 236 187 190 193 192 190 191 192 190 188 184 179 178 213 285 320 331 330 335 337 338 339 338 335 334 335 332 332 327 327 329 322 320 321 322 322 318 320 318 316
261 232 213 216 206 237 266 257 132 144 178 191 190 193 192 192 191 190 185 178 177 182 226 269 311 325 331 334 336 337 340 340 337 337 337 335 333 332 328 326 323 323 323 324 323 322 322 321 320